H1 CPF 2 NER 2022 10 28 9 301 01 glonass135 H2 1600801 9135 41330 2022 10 28 0 0 0 2022 10 31 23 45 0 900 1 1 0 0 0 1 H9 10 0 59880 0.00000 0 -13424765.481 17722873.902 12472077.750 10 0 59880 900.00000 0 -14358987.494 18732692.762 9624555.336 10 0 59880 1800.00000 0 -14954436.748 19558474.330 6589664.680 10 0 59880 2700.00000 0 -15229838.259 20144242.175 3426444.219 10 0 59880 3600.00000 0 -15215697.336 20440916.883 196477.100 10 0 59880 4500.00000 0 -14952792.490 20408520.674 -3037317.441 10 0 59880 5400.00000 0 -14490243.057 20018015.692 -6211922.032 10 0 59880 6300.00000 0 -13883234.302 19252696.417 -9265462.999 10 0 59880 7200.00000 0 -13190497.692 18109075.648 -12138430.186 10 0 59880 8100.00000 0 -12471654.619 16597225.285 -14774849.506 10 0 59880 9000.00000 0 -11784537.666 14740556.481 -17123384.024 10 0 59880 9900.00000 0 -11182604.314 12575047.954 -19138340.972 10 0 59880 10800.00000 0 -10712553.710 10147954.736 -20780564.499 10 0 59880 11700.00000 0 -10412248.054 7516051.718 -22018196.534 10 0 59880 12600.00000 0 -10309026.741 4743486.068 -22827291.187 10 0 59880 13500.00000 0 -10418484.261 1899328.721 -23192271.343 10 0 59880 14400.00000 0 -10743762.815 -945072.516 -23106219.517 10 0 59880 15300.00000 0 -11275388.532 -3718827.736 -22570998.374 10 0 59880 16200.00000 0 -11991657.096 -6354214.013 -21597199.780 10 0 59880 17100.00000 0 -12859551.374 -8789246.798 -20203924.492 10 0 59880 18000.00000 0 -13836151.354 -10970007.741 -18418397.790 10 0 59880 18900.00000 0 -14870476.170 -12852633.694 -16275429.368 10 0 59880 19800.00000 0 -15905680.118 -14404886.089 -13816728.559 10 0 59880 20700.00000 0 -16881509.926 -15607237.379 -11090088.671 10 0 59880 21600.00000 0 -17736919.895 -16453431.600 -8148456.452 10 0 59880 22500.00000 0 -18412735.121 -16950497.910 -5048904.758 10 0 59880 23400.00000 0 -18854251.168 -17118218.620 -1851528.327 10 0 59880 24300.00000 0 -19013661.422 -16988075.866 1381716.223 10 0 59880 25200.00000 0 -18852210.568 -16601722.524 4588204.053 10 0 59880 26100.00000 0 -18341984.204 -16009042.543 7705846.703 10 0 59880 27000.00000 0 -17467259.683 -15265882.729 10674284.916 10 0 59880 27900.00000 0 -16225361.518 -14431551.373 13436047.336 10 0 59880 28800.00000 0 -14626985.192 -13566188.590 15937653.334 10 0 59880 29700.00000 0 -12695975.090 -12728118.323 18130639.550 10 0 59880 30600.00000 0 -10468564.676 -11971292.544 19972491.153 10 0 59880 31500.00000 0 -7992109.198 -11342934.305 21427460.535 10 0 59880 32400.00000 0 -5323361.874 -10881477.991 22467258.335 10 0 59880 33300.00000 0 -2526363.267 -10614892.895 23071603.831 10 0 59880 34200.00000 0 329970.462 -10559460.480 23228624.186 10 0 59880 35100.00000 0 3174462.303 -10719057.101 22935094.619 10 0 59880 36000.00000 0 5936385.496 -11084973.105 22196514.236 10 0 59880 36900.00000 0 8548159.829 -11636277.149 21027015.103 10 0 59880 37800.00000 0 10947922.306 -12340711.900 19449105.056 10 0 59880 38700.00000 0 13081865.986 -13156085.035 17493247.729 10 0 59880 39600.00000 0 14906249.730 -14032098.491 15197286.472 10 0 59880 40500.00000 0 16388994.933 -14912540.152 12605721.837 10 0 59880 41400.00000 0 17510802.099 -15737746.341 9768855.448 10 0 59880 42300.00000 0 18265739.845 -16447231.430 6741816.104 10 0 59880 43200.00000 0 18661281.182 -16982373.091 3583486.651 10 0 59880 44100.00000 0 18717785.152 -17289038.754 355352.602 10 0 59880 45000.00000 0 18467445.657 -17320040.698 -2879704.337 10 0 59880 45900.00000 0 17952752.171 -17037314.152 -6058643.335 10 0 59880 46800.00000 0 17224528.159 -16413724.295 -9119506.596 10 0 59880 47700.00000 0 16339631.270 -15434423.848 -12002640.820 10 0 59880 48600.00000 0 15358413.975 -14097702.213 -14651872.597 10 0 59880 49500.00000 0 14342053.613 -12415288.904 -17015613.535 10 0 59880 50400.00000 0 13349866.212 -10412097.616 -19047872.382 10 0 59880 51300.00000 0 12436718.900 -8125421.165 -20709153.829 10 0 59880 52200.00000 0 11650651.034 -5603610.935 -21967226.269 10 0 59880 53100.00000 0 11030804.911 -2904296.433 -22797743.707 10 0 59880 54000.00000 0 10605753.173 -92219.710 -23184710.386 10 0 59880 54900.00000 0 10392292.772 2763224.632 -23120779.967 10 0 59880 55800.00000 0 10394755.282 5590640.980 -22607384.512 10 0 59880 56700.00000 0 10604861.199 8319365.512 -21654691.964 10 0 59880 57600.00000 0 11002122.887 10882166.958 -20281394.062 10 0 59880 58500.00000 0 11554777.706 13217803.723 -18514329.812 10 0 59880 59400.00000 0 12221210.679 15273332.275 -16387952.742 10 0 59880 60300.00000 0 12951805.688 17006072.321 -13943652.820 10 0 59880 61200.00000 0 13691146.485 18385148.746 -11228946.759 10 0 59880 62100.00000 0 14380474.343 19392548.117 -8296552.602 10 0 59880 63000.00000 0 14960298.742 20023647.804 -5203366.600 10 0 59880 63900.00000 0 15373051.251 20287197.572 -2009362.205 10 0 59880 64800.00000 0 15565671.201 20204756.317 1223567.731 10 0 59880 65700.00000 0 15492014.711 19809609.060 4432803.487 10 0 59880 66600.00000 0 15114986.142 19145210.700 7556203.016 10 0 59880 67500.00000 0 14408302.639 18263222.554 10533295.833 10 0 59880 68400.00000 0 13357817.699 17221224.297 13306443.808 10 0 59880 69300.00000 0 11962348.010 16080197.162 15821947.162 10 0 59880 70200.00000 0 10233968.260 14901883.540 18031075.133 10 0 59880 71100.00000 0 8197760.514 13746132.973 19891002.269 10 0 59880 72000.00000 0 5891027.222 12668345.027 21365632.973 10 0 59880 72900.00000 0 3361998.833 11717115.388 22426299.056 10 0 59880 73800.00000 0 668087.716 10932183.168 23052317.286 10 0 59880 74700.00000 0 -2126241.116 10342765.031 23231396.218 10 0 59880 75600.00000 0 -4951896.296 9966345.877 22959884.306 10 0 59880 76500.00000 0 -7737784.728 9807977.100 22242853.872 10 0 59880 77400.00000 0 -10413527.230 9860112.566 21094018.370 10 0 59880 78300.00000 0 -12912153.831 10102990.181 19535483.301 10 0 59880 79200.00000 0 -15172667.527 10505544.224 17597334.116 10 0 59880 80100.00000 0 -17142370.119 11026811.301 15317067.617 10 0 59880 81000.00000 0 -18778853.106 11617771.778 12738876.374 10 0 59880 81900.00000 0 -20051570.043 12223549.846 9912798.854 10 0 59880 82800.00000 0 -20942923.824 12785879.653 6893750.903 10 0 59880 83700.00000 0 -21448822.571 13245733.051 3740457.058 10 0 59880 84600.00000 0 -21578680.137 13545997.041 514302.495 10 0 59880 85500.00000 0 -21354860.766 13634086.295 -2721871.294 10 0 59881 0.00000 0 -20811591.388 13464378.456 -5905002.357 10 0 59881 900.00000 0 -19993387.512 13000367.025 -8973051.941 10 0 59881 1800.00000 0 -18953060.797 12216439.009 -11866225.804 10 0 59881 2700.00000 0 -17749392.700 11099199.946 -14528153.602 10 0 59881 3600.00000 0 -16444574.506 9648288.877 -16906997.685 10 0 59881 4500.00000 0 -15101523.072 7876647.603 -18956470.275 10 0 59881 5400.00000 0 -13781186.925 5810232.048 -20636738.262 10 0 59881 6300.00000 0 -12539957.275 3487177.390 -21915197.800 10 0 59881 7200.00000 0 -11427293.657 956451.955 -22767103.715 10 0 59881 8100.00000 0 -10483664.151 -1723943.651 -23176042.139 10 0 59881 9000.00000 0 -9738886.321 -4489156.696 -23134238.008 10 0 59881 9900.00000 0 -9210937.620 -7269950.466 -22642692.527 10 0 59881 10800.00000 0 -8905283.781 -9995357.535 -21711149.094 10 0 59881 11700.00000 0 -8814751.701 -12595407.881 -20357889.442 10 0 59881 12600.00000 0 -8919950.295 -15003818.756 -18609365.030 10 0 59881 13500.00000 0 -9190219.813 -17160535.309 -16499671.663 10 0 59881 14400.00000 0 -9585068.059 -19014017.436 -14069878.200 10 0 59881 15300.00000 0 -10056031.723 -20523179.100 -11367222.872 10 0 59881 16200.00000 0 -10548883.479 -21658901.048 -8444193.044 10 0 59881 17100.00000 0 -11006091.290 -22405055.699 -5357506.341 10 0 59881 18000.00000 0 -11369426.032 -22759003.203 -2167012.875 10 0 59881 18900.00000 0 -11582607.617 -22731539.688 1065460.357 10 0 59881 19800.00000 0 -11593878.359 -22346301.396 4277300.905 10 0 59881 20700.00000 0 -11358395.533 -21638650.784 7406315.377 10 0 59881 21600.00000 0 -10840342.723 -20654092.098 10391924.372 10 0 59881 22500.00000 0 -10014671.306 -19446283.153 13176325.381 10 0 59881 23400.00000 0 -8868398.818 -18074726.596 15705601.895 10 0 59881 24300.00000 0 -7401409.263 -16602236.967 17930758.127 10 0 59881 25200.00000 0 -5626720.917 -15092288.894 19808660.265 10 0 59881 26100.00000 0 -3570209.170 -13606356.548 21302866.774 10 0 59881 27000.00000 0 -1269794.215 -12201354.697 22384332.431 10 0 59881 27900.00000 0 1225874.643 -10927287.470 23031972.946 10 0 59881 28800.00000 0 3859185.495 -9825202.434 23233079.365 10 0 59881 29700.00000 0 6565710.062 -8925535.109 22983574.106 10 0 59881 30600.00000 0 9276642.766 -8246913.007 22288103.055 10 0 59881 31500.00000 0 11921433.176 -7795469.568 21159961.038 10 0 59881 32400.00000 0 14430504.146 -7564697.247 19620850.850 10 0 59881 33300.00000 0 16737943.679 -7535846.722 17700479.033 10 0 59881 34200.00000 0 18784058.995 -7678856.387 15435994.744 10 0 59881 35100.00000 0 20517686.381 -7953773.860 12871281.110 10 0 59881 36000.00000 0 21898159.937 -8312610.327 10056111.565 10 0 59881 36900.00000 0 22896856.046 -8701549.754 7045186.743 10 0 59881 37800.00000 0 23498247.910 -9063419.527 3897070.218 10 0 59881 38700.00000 0 23700424.928 -9340317.343 673043.848 10 0 59881 39600.00000 0 23515054.295 -9476282.008 -2564094.325 10 0 59881 40500.00000 0 22966786.026 -9419893.420 -5751265.174 10 0 59881 41400.00000 0 22092126.468 -9126689.739 -8826351.235 10 0 59881 42300.00000 0 20937828.245 -8561297.332 -11729421.226 10 0 59881 43200.00000 0 19558865.461 -7699181.364 -14403910.995 10 0 59881 44100.00000 0 18016080.694 -6527941.185 -16797736.514 10 0 59881 45000.00000 0 16373604.394 -5048094.369 -18864316.043 10 0 59881 45900.00000 0 14696156.694 -3273315.220 -20563480.904 10 0 59881 46800.00000 0 13046346.342 -1230116.999 -21862256.852 10 0 59881 47700.00000 0 11482081.108 1043009.075 -22735500.963 10 0 59881 48600.00000 0 10054198.745 3496961.971 -23166382.226 10 0 59881 49500.00000 0 8804417.579 6073848.802 -23146697.361 10 0 59881 50400.00000 0 7763691.913 8709176.313 -22677016.735 10 0 59881 51300.00000 0 6951039.768 11334324.353 -21766658.745 10 0 59881 52200.00000 0 6372890.327 13879198.284 -20433494.227 10 0 59881 53100.00000 0 6022976.421 16274949.980 -18703585.762 10 0 59881 54000.00000 0 5882774.389 18456654.752 -16610669.741 10 0 59881 54900.00000 0 5922470.779 20365833.555 -14195491.863 10 0 59881 55800.00000 0 6102413.422 21952716.508 -11505009.517 10 0 59881 56700.00000 0 6374984.317 23178154.780 -8591476.758 10 0 59881 57600.00000 0 6686814.363 24015102.637 -5511429.712 10 0 59881 58500.00000 0 6981245.948 24449609.327 -2324592.112 10 0 59881 59400.00000 0 7200939.306 24481280.934 907278.051 10 0 59881 60300.00000 0 7290512.744 24123194.288 4121578.756 10 0 59881 61200.00000 0 7199105.705 23401267.628 7256068.366 10 0 59881 62100.00000 0 6882756.951 22353115.215 10250061.523 10 0 59881 63000.00000 0 6306497.971 21026434.192 13045594.100 10 0 59881 63900.00000 0 5446073.649 19476991.273 15588535.354 10 0 59881 64800.00000 0 4289217.639 17766293.057 17829626.703 10 0 59881 65700.00000 0 2836428.310 15959036.710 19725427.903 10 0 59881 66600.00000 0 1101211.690 14120446.604 21239153.094 10 0 59881 67500.00000 0 -890220.270 12313607.092 22341381.297 10 0 59881 68400.00000 0 -3099785.481 10596901.626 23010628.075 10 0 59881 69300.00000 0 -5478868.880 9021664.188 23233767.483 10 0 59881 70200.00000 0 -7970107.662 7630140.245 23006295.967 10 0 59881 71100.00000 0 -10509552.749 6453841.848 22332432.578 10 0 59881 72000.00000 0 -13029118.675 5512365.501 21225052.612 10 0 59881 72900.00000 0 -15459221.869 4812722.345 19705454.758 10 0 59881 73800.00000 0 -17731498.951 4349209.149 17802964.766 10 0 59881 74700.00000 0 -19781492.501 4103826.158 15554381.848 10 0 59881 75600.00000 0 -21551192.579 4047224.844 13003277.023 10 0 59881 76500.00000 0 -22991327.503 4140146.252 10199155.801 10 0 59881 77400.00000 0 -24063307.171 4335289.614 7196500.564 10 0 59881 78300.00000 0 -24740736.480 4579532.207 4053710.846 10 0 59881 79200.00000 0 -25010434.077 4816406.112 831962.140 10 0 59881 80100.00000 0 -24872912.482 4988726.008 -2405993.904 10 0 59881 81000.00000 0 -24342298.533 5041255.266 -5597063.539 10 0 59881 81900.00000 0 -23445697.009 4923295.564 -8679053.861 10 0 59881 82800.00000 0 -22222024.252 4591088.346 -11591898.811 10 0 59881 83700.00000 0 -20720361.408 4009924.399 -14278842.809 10 0 59881 84600.00000 0 -18997897.504 3155870.354 -16687557.607 10 0 59881 85500.00000 0 -17117550.177 2017037.559 -18771169.371 10 0 59882 0.00000 0 -15145365.526 594338.601 -20489175.209 10 0 59882 900.00000 0 -13147806.474 -1098302.109 -21808231.862 10 0 59882 1800.00000 0 -11189047.040 -3034291.012 -22702799.078 10 0 59882 2700.00000 0 -9328382.918 -5175249.702 -23155628.813 10 0 59882 3600.00000 0 -7617869.402 -7472401.870 -23158089.191 10 0 59882 4500.00000 0 -6100283.891 -9868405.305 -22710318.921 10 0 59882 5400.00000 0 -4807497.172 -12299552.083 -21821210.171 10 0 59882 6300.00000 0 -3759319.914 -14698244.990 -20508221.312 10 0 59882 7200.00000 0 -2962870.608 -16995646.843 -18797024.211 10 0 59882 8100.00000 0 -2412489.080 -19124392.558 -16720993.799 10 0 59882 9000.00000 0 -2090196.847 -21021251.455 -14320550.444 10 0 59882 9900.00000 0 -1966682.800 -22629629.527 -11642368.468 10 0 59882 10800.00000 0 -2002770.787 -23901808.366 -8738466.391 10 0 59882 11700.00000 0 -2151305.807 -24800828.512 -5665196.673 10 0 59882 12600.00000 0 -2359378.261 -25301939.844 -2482154.571 10 0 59882 13500.00000 0 -2570791.798 -25393559.717 748972.952 10 0 59882 14400.00000 0 -2728670.457 -25077700.027 3965596.273 10 0 59882 15300.00000 0 -2778095.161 -24369846.306 7105427.445 10 0 59882 16200.00000 0 -2668658.684 -23298294.691 10107677.084 10 0 59882 17100.00000 0 -2356831.675 -21902974.858 12914221.365 10 0 59882 18000.00000 0 -1808040.396 -20233808.176 15470717.225 10 0 59882 18900.00000 0 -998368.757 -18348669.329 17727645.138 10 0 59882 19800.00000 0 84187.157 -16311035.811 19641260.174 10 0 59882 20700.00000 0 1438965.424 -14187422.426 21174433.731 10 0 59882 21600.00000 0 3052418.261 -12044706.589 22297370.420 10 0 59882 22500.00000 0 4898436.525 -9947454.654 22988186.749 10 0 59882 23400.00000 0 6939207.165 -7955359.490 23233340.559 10 0 59882 24300.00000 0 9126570.182 -6120895.008 23027902.805 10 0 59882 25200.00000 0 11403820.950 -4487284.538 22375665.863 10 0 59882 26100.00000 0 13707885.070 -3086867.338 21289085.361 10 0 59882 27000.00000 0 15971777.239 -1939931.227 19789055.441 10 0 59882 27900.00000 0 18127243.298 -1054060.224 17904520.336 10 0 59882 28800.00000 0 20107476.291 -424024.900 15671928.288 10 0 59882 29700.00000 0 21849793.627 -32220.487 13134536.896 10 0 59882 30600.00000 0 23298163.285 150365.275 10341582.095 10 0 59882 31500.00000 0 24405472.535 162694.970 7347326.037 10 0 59882 32400.00000 0 25135442.972 51796.560 4210001.915 10 0 59882 33300.00000 0 25464110.070 -129469.276 990676.249 10 0 59882 34200.00000 0 25380803.639 -324894.250 -2247948.560 10 0 59882 35100.00000 0 24888586.681 -477553.445 -5442767.160 10 0 59882 36000.00000 0 24004133.225 -532469.077 -8531514.294 10 0 59882 36900.00000 0 22757049.781 -439192.253 -11453992.158 10 0 59882 37800.00000 0 21188669.006 -154191.371 -14153256.648 10 0 59882 38700.00000 0 19350366.769 357055.880 -16576737.988 10 0 59882 39600.00000 0 17301474.288 1118357.113 -18677272.703 10 0 59882 40500.00000 0 15106874.102 2141559.835 -20414026.145 10 0 59882 41400.00000 0 12834381.846 3425819.618 -21753287.313 10 0 59882 42300.00000 0 10552024.613 4957413.204 -22669120.552 10 0 59882 43200.00000 0 8325330.447 6710104.670 -23143862.024 10 0 59882 44100.00000 0 6214742.500 8646049.238 -23168452.108 10 0 59882 45000.00000 0 4273265.586 10717196.576 -22742598.280 10 0 59882 45900.00000 0 2544442.473 12867134.519 -21874766.440 10 0 59882 46800.00000 0 1060742.879 15033295.886 -20582001.973 10 0 59882 47700.00000 0 -157569.437 17149435.919 -18889585.034 10 0 59882 48600.00000 0 -1103046.453 19148276.967 -16830527.631 10 0 59882 49500.00000 0 -1781119.532 20964210.222 -14444922.924 10 0 59882 50400.00000 0 -2209616.686 22535942.164 -11779159.902 10 0 59882 51300.00000 0 -2417756.023 23808975.905 -8885018.965 10 0 59882 52200.00000 0 -2444659.693 24737824.688 -5818666.053 10 0 59882 53100.00000 0 -2337452.334 25287865.998 -2639564.892 10 0 59882 54000.00000 0 -2149025.260 25436759.828 590671.754 10 0 59882 54900.00000 0 -1935561.221 25175372.808 3809469.887 10 0 59882 55800.00000 0 -1753924.337 24508170.368 6954498.439 10 0 59882 56700.00000 0 -1659025.133 23453061.174 9964867.087 10 0 59882 57600.00000 0 -1701271.513 22040700.665 12782295.226 10 0 59882 58500.00000 0 -1924212.668 20313282.779 15352230.182 10 0 59882 59400.00000 0 -2362474.869 18322869.928 17624893.936 10 0 59882 60300.00000 0 -3040075.968 16129330.134 19556239.042 10 0 59882 61200.00000 0 -3969189.677 13797966.324 21108796.020 10 0 59882 62100.00000 0 -5149412.304 11396935.242 22252396.606 10 0 59882 63000.00000 0 -6567563.889 8994561.985 22964759.402 10 0 59882 63900.00000 0 -8198033.744 6656660.570 23231926.777 10 0 59882 64800.00000 0 -10003658.012 4443970.669 23048544.470 10 0 59882 65700.00000 0 -11937094.887 2409816.050 22417977.949 10 0 59882 66600.00000 0 -13942642.346 598081.502 21352262.399 10 0 59882 67500.00000 0 -15958424.740 -958407.986 19871886.100 10 0 59882 68400.00000 0 -17918858.771 -2239038.287 18005409.916 10 0 59882 69300.00000 0 -19757297.175 -3236039.173 15788928.776 10 0 59882 70200.00000 0 -21408740.305 -3954572.539 13265384.097 10 0 59882 71100.00000 0 -22812502.249 -4412271.784 10483739.160 10 0 59882 72000.00000 0 -23914719.154 -4638251.399 7498032.599 10 0 59882 72900.00000 0 -24670593.461 -4671628.479 4366327.868 10 0 59882 73800.00000 0 -25046278.343 -4559618.860 1149579.118 10 0 59882 74700.00000 0 -25020321.437 -4355289.027 -2089563.826 10 0 59882 75600.00000 0 -24584605.550 -4115060.064 -5287987.206 10 0 59882 76500.00000 0 -23744745.333 -3896070.863 -8383356.446 10 0 59882 77400.00000 0 -22519922.247 -3753514.044 -11315344.858 10 0 59882 78300.00000 0 -20942164.254 -3738059.409 -14026822.442 10 0 59882 79200.00000 0 -19055100.513 -3893475.900 -16464980.259 10 0 59882 80100.00000 0 -16912243.872 -4254554.444 -18582367.210 10 0 59882 81000.00000 0 -14574874.062 -4845420.896 -20337818.360 10 0 59882 81900.00000 0 -12109611.216 -5678311.375 -21697256.374 10 0 59882 82800.00000 0 -9585782.340 -6752862.250 -22634350.569 10 0 59882 83700.00000 0 -7072691.534 -8055944.899 -23131021.279 10 0 59882 84600.00000 0 -4636908.324 -9562052.140 -23177780.533 10 0 59882 85500.00000 0 -2339687.216 -11234219.739 -22773903.431 10 0 59883 0.00000 0 -234625.563 -13025443.770 -21927428.108 10 0 59883 900.00000 0 1634344.941 -14880534.972 -20654984.831 10 0 59883 1800.00000 0 3234548.252 -16738329.623 -18981459.829 10 0 59883 2700.00000 0 4545675.092 -18534167.430 -16939499.708 10 0 59883 3600.00000 0 5560368.283 -20202530.380 -14568867.795 10 0 59883 4500.00000 0 6284261.533 -21679733.280 -11915665.061 10 0 59883 5400.00000 0 6735472.337 -22906553.744 -9031431.094 10 0 59883 6300.00000 0 6943572.543 -23830692.191 -5972142.674 10 0 59883 7200.00000 0 6948081.706 -24408959.645 -2797129.448 10 0 59883 8100.00000 0 6796548.111 -24609102.588 432072.456 10 0 59883 9000.00000 0 6542299.258 -24411189.280 3652906.957 10 0 59883 9900.00000 0 6241957.093 -23808500.214 6803002.009 10 0 59883 10800.00000 0 5952822.856 -22807885.936 9821368.345 10 0 59883 11700.00000 0 5730241.555 -21429577.523 12649570.419 10 0 59883 12600.00000 0 5625056.734 -19706457.510 15232847.602 10 0 59883 13500.00000 0 5681262.286 -17682821.310 17521164.866 10 0 59883 14400.00000 0 5933949.813 -15412679.908 19470173.514 10 0 59883 15300.00000 0 6407637.729 -12957673.505 21042064.203 10 0 59883 16200.00000 0 7115052.611 -10384681.524 22206296.542 10 0 59883 17100.00000 0 8056414.657 -7763226.826 22940191.687 10 0 59883 18000.00000 0 9219258.411 -5162780.486 23229376.698 10 0 59883 18900.00000 0 10578797.907 -2650077.589 23068071.964 10 0 59883 19800.00000 0 12098822.958 -286554.197 22459215.643 10 0 59883 20700.00000 0 13733091.203 1873988.901 21414421.826 10 0 59883 21600.00000 0 15427159.877 3787399.232 19953772.041 10 0 59883 22500.00000 0 17120582.624 5420778.977 18105442.687 10 0 59883 23400.00000 0 18749380.916 6753617.560 15905174.086 10 0 59883 24300.00000 0 20248687.608 7778402.983 13395589.973 10 0 59883 25200.00000 0 21555452.161 8500685.993 10625379.276 10 0 59883 26100.00000 0 22611093.690 8938594.056 7648355.193 10 0 59883 27000.00000 0 23363989.472 9121815.435 4522409.320 10 0 59883 27900.00000 0 23771692.897 9090096.397 1308381.127 10 0 59883 28800.00000 0 23802785.769 8891315.424 -1931134.608 10 0 59883 29700.00000 0 23438285.159 8579216.843 -5133018.283 10 0 59883 30600.00000 0 22672543.823 8210901.060 -8234868.598 10 0 59883 31500.00000 0 21513604.848 7844179.299 -11176232.502 10 0 59883 32400.00000 0 19982994.575 7534906.694 -13899796.516 10 0 59883 33300.00000 0 18114961.991 7334408.490 -16352514.778 10 0 59883 34200.00000 0 15955196.533 7287109.994 -18486650.621 10 0 59883 35100.00000 0 13559078.512 7428471.928 -20260710.672 10 0 59883 36000.00000 0 10989536.111 7783319.475 -21640252.933 10 0 59883 36900.00000 0 8314599.470 8364636.155 -22598553.157 10 0 59883 37800.00000 0 5604754.767 9172873.566 -23117117.080 10 0 59883 38700.00000 0 2930209.161 10195805.908 -23186029.339 10 0 59883 39600.00000 0 358180.796 11408934.890 -22804133.282 10 0 59883 40500.00000 0 -2049673.668 12776427.452 -21979039.294 10 0 59883 41400.00000 0 -4239587.791 14252546.206 -20726962.584 10 0 59883 42300.00000 0 -6167674.719 15783511.972 -19072394.600 10 0 59883 43200.00000 0 -7801496.233 17309719.830 -17047615.324 10 0 59883 44100.00000 0 -9121148.284 18768215.492 -14692056.580 10 0 59883 45000.00000 0 -10119820.067 20095328.132 -12051529.261 10 0 59883 45900.00000 0 -10803805.814 21229349.477 -9177329.752 10 0 59883 46800.00000 0 -11191971.205 22113147.240 -6125243.036 10 0 59883 47700.00000 0 -11314698.875 22696603.859 -2954461.858 10 0 59883 48600.00000 0 -11212359.099 22938778.912 273557.218 10 0 59883 49500.00000 0 -10933371.303 22809705.213 3496279.015 10 0 59883 50400.00000 0 -10531938.775 22291743.872 6651293.515 10 0 59883 51300.00000 0 -10065552.366 21380441.968 9677515.460 10 0 59883 52200.00000 0 -9592368.308 20084857.065 12516357.235 10 0 59883 53100.00000 0 -9168570.201 18427334.887 15112853.014 10 0 59883 54000.00000 0 -8845825.774 16442748.909 17416713.332 10 0 59883 54900.00000 0 -8668944.848 14177232.704 19383290.610 10 0 59883 55800.00000 0 -8673836.581 11686456.684 20974437.763 10 0 59883 56700.00000 0 -8885851.666 9033519.467 22159244.086 10 0 59883 57600.00000 0 -9318579.283 6286539.778 22914634.754 10 0 59883 58500.00000 0 -9973149.959 3516047.240 23225822.574 10 0 59883 59400.00000 0 -10838074.665 792278.617 23086603.184 10 0 59883 60300.00000 0 -11889628.428 -1817509.851 22499487.524 10 0 59883 61200.00000 0 -13092764.201 -4251603.592 21475668.137 10 0 59883 62100.00000 0 -14402520.651 -6456158.907 20034818.791 10 0 59883 63000.00000 0 -15765866.787 -8387203.884 18204729.849 10 0 59883 63900.00000 0 -17123907.704 -10012227.767 16020784.943 10 0 59883 64800.00000 0 -18414360.099 -11311292.375 13525287.590 10 0 59883 65700.00000 0 -19574194.264 -12277618.781 10766649.449 10 0 59883 66600.00000 0 -20542331.433 -12917624.197 7798455.102 10 0 59883 67500.00000 0 -21262282.385 -13250407.315 4678420.925 10 0 59883 68400.00000 0 -21684614.908 -13306703.659 1467268.271 10 0 59883 69300.00000 0 -21769144.517 -13127355.270 -1772466.570 10 0 59883 70200.00000 0 -21486754.137 -12761360.045 -4977661.529 10 0 59883 71100.00000 0 -20820764.095 -12263584.274 -8085851.846 10 0 59883 72000.00000 0 -19767792.901 -11692236.584 -11036461.244 10 0 59883 72900.00000 0 -18338071.103 -11106211.865 -13771995.693 10 0 59883 73800.00000 0 -16555194.013 -10562419.380 -16239175.098 10 0 59883 74700.00000 0 -14455323.206 -10113209.734 -18389979.581 10 0 59883 75600.00000 0 -12085870.267 -9804010.979 -20182589.279 10 0 59883 76500.00000 0 -9503718.247 -9671274.766 -21582198.976 10 0 59883 77400.00000 0 -6773055.852 -9740819.884 -22561691.735 10 0 59883 78300.00000 0 -3962915.437 -10026643.182 -23102158.969 10 0 59883 79200.00000 0 -1144517.973 -10530247.712 -23193257.590 10 0 59883 80100.00000 0 1611464.060 -11240515.737 -22833398.286 10 0 59883 81000.00000 0 4237612.094 -12134131.099 -22029762.381 10 0 59883 81900.00000 0 6672323.261 -13176532.243 -20798148.039 10 0 59883 82800.00000 0 8862122.955 -14323354.893 -19162649.791 10 0 59883 83700.00000 0 10763633.506 -15522302.973 -17155178.521 10 0 59883 84600.00000 0 12345118.912 -16715368.586 -14814831.840 10 0 59883 85500.00000 0 13587543.352 -17841307.420 -12187127.666 99